Location: Kitt Peak
(31.9633°N, 111.6000°W)
Time: 00:57:19
(UTC-07:00)

Amateur Radio Satellites - All Passes

Search period start: 17 August 2017 00:27
Search period end: 18 August 2017 00:27
Location: Kitt Peak, 31.9633°N, 111.6000°W

Satellite Date Start Highest point End Downlink Frequencies (MHz)
Time Altitude Azimuth
AIST 2D 17 Aug 00:31:58 00:34:18 17° 288° (WNW) 00:36:38 435.315
BUGSAT 1 17 Aug 00:36:44 00:40:00 24° 97° (E) 00:43:16 437.445
ESTCUBE 1 17 Aug 00:37:32 00:38:28 11° 267° (W) 00:39:25 437.505/2401.250
M-CUBED/EXP-1 PRIME 17 Aug 00:48:06 00:51:25 21° 296° (WNW) 00:54:35 437.505
NANOSAT C BR1 17 Aug 01:00:19 01:04:00 31° 287° (WNW) 01:07:41 145.865
POLYITAN 1 17 Aug 01:00:42 01:04:16 27° 288° (WNW) 01:07:50 437.675
VELOX 1 17 Aug 01:01:01 01:04:52 29° 262° (W) 01:08:44 145.980
UKube-1 17 Aug 01:04:50 01:08:59 49° 74° (ENE) 01:13:10 .
Oscar 19 17 Aug 01:11:29 01:15:54 28° 97° (E) 01:20:17 437.125/150
QB50P2 17 Aug 01:16:16 01:18:58 17° 291° (WNW) 01:21:41 145.880/145.840
DX 1 17 Aug 01:16:45 01:21:06 72° 258° (WSW) 01:25:30 434.975-435.025
EO-79 17 Aug 01:18:35 01:21:21 17° 291° (WNW) 01:24:07 145.935-145.965
50 SAT 17 Aug 01:19:58 01:23:05 33° 261° (W) 01:26:13 437.505
Gurwin Techsat 1B 17 Aug 01:48:07 01:53:07 41° 99° (E) 01:58:06 435.225
MOZHAYETS 4 17 Aug 01:52:31 01:54:06 12° 66° (ENE) 01:55:41
ITUPSAT 1 17 Aug 01:58:22 02:01:39 19° 68° (ENE) 02:04:55 437.325
NO-84 17 Aug 01:58:45 02:01:40 78° 312° (NW) 02:04:31 435.350 FM
BUGSAT 1 17 Aug 02:12:21 02:15:10 19° 290° (WNW) 02:17:59 437.445
AO-7 17 Aug 02:14:09 02:15:55 11° 92° (E) 02:17:40 .
YUBILEINY 17 Aug 02:33:40 02:41:17 33° 75° (ENE) 02:48:49 435.215
UKube-1 17 Aug 02:44:19 02:45:12 11° 267° (W) 02:46:05 .
Oscar 19 17 Aug 02:50:42 02:55:05 28° 290° (WNW) 02:59:26 437.125/150
BEESAT 17 Aug 03:03:00 03:07:45 80° 257° (WSW) 03:12:31 436.000
MOZHAYETS 4 17 Aug 03:26:19 03:30:44 52° 260° (W) 03:35:11
Gurwin Techsat 1B 17 Aug 03:28:59 03:32:43 20° 293° (WNW) 03:36:26 435.225
CUBESAT XI-V 17 Aug 03:34:40 03:38:44 31° 72° (ENE) 03:42:50 437.345
ITUPSAT 1 17 Aug 03:34:49 03:39:09 35° 261° (W) 03:43:30 437.325
ITAMSAT 1 17 Aug 03:59:51 04:05:03 84° 104° (ESE) 04:10:12 435.822/435.867
AO-7 17 Aug 04:01:15 04:09:36 79° 106° (ESE) 04:17:54 .
KKS-1 17 Aug 04:09:39 04:13:42 34° 73° (ENE) 04:17:45 437.445
YUBILEINY 17 Aug 04:30:02 04:38:05 44° 272° (W) 04:46:08 435.215
BEESAT 3 17 Aug 04:52:33 04:55:39 22° 111° (ESE) 04:58:47 437.485
STARS 17 Aug 05:00:17 05:04:34 52° 75° (ENE) 05:08:52 437.465
CUBESAT XI-V 17 Aug 05:12:46 05:16:05 19° 265° (W) 05:19:25 437.345
AO-85 17 Aug 05:20:04 05:23:34 29° 113° (ESE) 05:26:59 145.980
DOVE 4 17 Aug 05:20:37 05:24:49 36° 97° (E) 05:28:48 437.250
XW-2F 17 Aug 05:32:28 05:33:56 12° 94° (E) 05:35:23 145.980 - 146.000
CUTE-I 17 Aug 05:39:15 05:42:35 17° 94° (E) 05:45:53 437.470
KKS-1 17 Aug 05:47:28 05:50:17 16° 265° (W) 05:53:06 437.445
AO-7 17 Aug 05:55:56 06:01:25 20° 302° (WNW) 06:06:53 .
KAITUO 1B 17 Aug 06:03:32 06:06:41 24° 97° (E) 06:09:49 145.475/437.950
LilacSat-2 17 Aug 06:09:16 06:12:59 45° 99° (E) 06:16:42 437.200
HO-68 17 Aug 06:17:07 06:20:46 14° 93° (E) 06:24:23 435.675
XW-2D 17 Aug 06:18:52 06:22:39 60° 100° (E) 06:26:27 145.860 - 145.880
XW-2B 17 Aug 06:29:43 06:33:35 82° 104° (ESE) 06:37:25 145.730 - 145.750
BEESAT 3 17 Aug 06:29:51 06:33:04 23° 305° (NW) 06:36:20 437.485
BEESAT 2 17 Aug 06:32:44 06:36:41 72° 298° (WNW) 06:40:43 435.950
STARS 17 Aug 06:40:37 06:41:07 10° 267° (W) 06:41:37 437.465
NUDT-PHONESAT 17 Aug 06:42:17 06:46:03 87° 97° (E) 06:49:48 437.300
SEEDS 17 Aug 06:47:32 06:47:46 10° 92° (E) 06:48:00 437.485
XW-2C 17 Aug 06:48:40 06:52:24 51° 284° (WNW) 06:56:08 145.795 - 145.815
DOVE 4 17 Aug 06:59:24 07:02:06 16° 293° (WNW) 07:04:43 437.250
AO-85 17 Aug 07:01:21 07:03:56 17° 306° (NW) 07:06:31 145.980
XW-2F 17 Aug 07:04:38 07:08:06 33° 286° (WNW) 07:11:33 145.980 - 146.000
STRAND 1 17 Aug 07:15:52 07:20:59 85° 257° (WSW) 07:26:07 437.568
CUTE-I 17 Aug 07:17:43 07:22:47 46° 287° (WNW) 07:27:49 437.470
XW-2A 17 Aug 07:18:08 07:20:34 18° 96° (E) 07:23:01 145.665 - 145.685
CUTE 1.7 + AOD 2 17 Aug 07:23:24 07:27:37 54° 100° (E) 07:31:49 437.475
KAITUO 1B 17 Aug 07:38:02 07:40:26 16° 289° (WNW) 07:42:49 145.475/437.950
AAUSAT CUBESAT 2 17 Aug 07:43:04 07:46:19 22° 96° (E) 07:49:35 437.432
ZACube-1 17 Aug 07:43:38 07:45:17 12° 94° (E) 07:46:57 437.345
FO-29 17 Aug 07:48:17 07:53:46 22° 66° (ENE) 07:59:00 435.910
HO-68 17 Aug 08:01:51 08:09:00 78° 287° (WNW) 08:16:09 435.675
AO-73 17 Aug 08:06:00 08:09:14 21° 96° (E) 08:12:29 145.935
SEEDS 17 Aug 08:19:32 08:23:39 48° 285° (WNW) 08:27:43 437.485
SO-50 17 Aug 08:25:15 08:29:01 25° 55° (NE) 08:32:48 436.795
CUBEBUG 2 17 Aug 08:26:48 08:30:51 49° 284° (WNW) 08:34:58 437.445
UWE-3 17 Aug 08:28:12 08:32:26 90° 285° (WNW) 08:36:47 435.000/436.395/437.385
UNISAT 6 17 Aug 08:47:29 08:50:32 19° 70° (ENE) 08:53:33 437.425
PCSat 17 Aug 08:50:04 08:55:28 65° 64° (ENE) 09:00:49 145.827
XW-2A 17 Aug 08:50:56 08:53:07 16° 288° (WNW) 08:55:18 145.665 - 145.685
Oscar 11 17 Aug 08:55:19 08:59:37 61° 100° (E) 09:03:55 .
O/OREOS (USA 219) 17 Aug 08:55:39 08:58:23 16° 100° (E) 09:01:07 437.305
CUTE 1.7 + AOD 2 17 Aug 09:02:29 09:02:55 10° 293° (WNW) 09:03:21 437.475
ZACube-1 17 Aug 09:17:38 09:21:40 42° 285° (WNW) 09:25:47 437.345
AAUSAT CUBESAT 2 17 Aug 09:18:23 09:21:38 22° 289° (WNW) 09:24:52 437.432
TIGRISAT 17 Aug 09:22:32 09:26:43 44° 75° (ENE) 09:30:49 435.000
DELFI C3 17 Aug 09:26:34 09:30:00 28° 97° (E) 09:33:26 145.870
FO-29 17 Aug 09:30:26 09:38:12 67° 258° (WSW) 09:45:30 435.910
EO-88 17 Aug 09:35:26 09:38:08 19° 96° (E) 09:40:48 145.990 - 145.960
AO-73 17 Aug 09:41:51 09:45:21 25° 288° (WNW) 09:48:55 145.935
HO-68 17 Aug 09:53:29 09:55:34 11° 303° (WNW) 09:57:39 435.675
Tancredo 1 17 Aug 09:54:45 09:57:38 59° 317° (NW) 10:00:32 437.200
M-CUBED/EXP-1 PRIME 17 Aug 09:54:47 09:57:36 17° 63° (ENE) 10:00:30 437.505
ISS 17 Aug 09:54:55 09:57:32 22° 128° (SE) 10:00:08 437.550
Max Valier Satellite 17 Aug 10:04:58 10:08:40 72° 101° (ESE) 10:12:21 145.860
SO-50 17 Aug 10:05:30 10:09:23 28° 248° (WSW) 10:13:18 436.795
PRISM 17 Aug 10:07:34 10:11:40 63° 259° (W) 10:15:48 437.425
nSIGHT-1 17 Aug 10:08:06 10:11:06 34° 131° (SE) 10:14:06 .
NO-84 17 Aug 10:12:17 10:15:33 70° 49° (NE) 10:19:08 435.350 FM
UNISAT 6 17 Aug 10:23:10 10:27:00 29° 262° (W) 10:30:48 437.425
RS-15 17 Aug 10:23:48 10:34:47 43° 107° (ESE) 10:45:57 29.354- 29.394
QB50P2 17 Aug 10:29:16 10:31:06 13° 68° (ENE) 10:32:57 145.880/145.840
EO-79 17 Aug 10:31:41 10:33:20 12° 68° (ENE) 10:35:00 145.935-145.965
O/OREOS (USA 219) 17 Aug 10:33:24 10:37:27 33° 294° (WNW) 10:41:30 437.305
PCSat 17 Aug 10:36:06 10:38:12 12° 257° (WSW) 10:40:17 145.827
JUGNU 17 Aug 10:40:54 10:43:46 14° 164° (SSE) 10:46:37 437.505
ESTCUBE 1 17 Aug 10:55:30 10:58:23 16° 95° (E) 11:01:14 437.505/2401.250
AIST 2D 17 Aug 11:00:04 11:03:31 75° 77° (ENE) 11:06:59 435.315
TIGRISAT 17 Aug 11:01:56 11:03:31 12° 266° (W) 11:05:06 435.000
DELFI C3 17 Aug 11:02:03 11:04:29 16° 290° (WNW) 11:06:54 145.870
DUCHIFAT 1 17 Aug 11:04:50 11:08:12 24° 71° (ENE) 11:11:34 145.980
EO-88 17 Aug 11:09:00 11:11:38 19° 288° (WNW) 11:14:15 145.990 - 145.960
LO-87 17 Aug 11:18:02 11:21:29 50° 100° (E) 11:24:55 145.935 - 145.965
M-CUBED/EXP-1 PRIME 17 Aug 11:27:36 11:31:35 38° 258° (WSW) 11:35:50 437.505
ISS 17 Aug 11:31:09 11:33:54 24° 322° (NW) 11:36:40 437.550
nSIGHT-1 17 Aug 11:45:15 11:47:33 18° 325° (NW) 11:49:51 .
NANOSAT C BR1 17 Aug 11:46:35 11:50:47 85° 255° (WSW) 11:54:59 145.865
POLYITAN 1 17 Aug 11:47:24 11:51:35 73° 259° (WSW) 11:55:47 437.675
SPROUT 17 Aug 11:58:31 12:01:33 19° 96° (E) 12:04:34 437.525
QB50P2 17 Aug 12:02:30 12:06:29 41° 261° (W) 12:10:28 145.880/145.840
EO-79 17 Aug 12:04:39 12:08:39 43° 261° (W) 12:12:40 145.935-145.965
Oscar 19 17 Aug 12:23:51 12:27:58 25° 69° (ENE) 12:32:06 437.125/150
JUGNU 17 Aug 12:27:39 12:32:10 23° 173° (S) 12:36:38 437.505
ESTCUBE 1 17 Aug 12:31:05 12:35:13 35° 287° (WNW) 12:39:19 437.505/2401.250
RS-15 17 Aug 12:35:12 12:46:57 52° 305° (NW) 12:58:57 29.354- 29.394
DUCHIFAT 1 17 Aug 12:40:37 12:43:45 20° 264° (W) 12:46:53 145.980
50 SAT 17 Aug 12:46:50 12:49:05 17° 96° (E) 12:51:18 437.505
VELOX 1 17 Aug 12:55:02 12:59:28 77° 101° (ESE) 13:03:51 145.980
BUGSAT 1 17 Aug 12:55:43 12:59:46 53° 260° (W) 13:03:47 437.445
UKube-1 17 Aug 12:58:45 13:00:18 12° 94° (E) 13:01:50 .
Gurwin Techsat 1B 17 Aug 13:04:21 13:09:19 41° 72° (ENE) 13:14:16 435.225
AO-7 17 Aug 13:08:30 13:11:24 12° 53° (NE) 13:14:18 .
DX 1 17 Aug 13:10:08 13:13:51 27° 98° (E) 13:17:32 434.975-435.025
SPROUT 17 Aug 13:33:51 13:37:22 26° 288° (WNW) 13:40:54 437.525
Oscar 19 17 Aug 14:02:37 14:07:05 30° 262° (W) 14:11:36 437.125/150
JUGNU 17 Aug 14:15:57 14:20:36 24° 183° (S) 14:25:14 437.505
50 SAT 17 Aug 14:19:18 14:21:37 17° 289° (WNW) 14:23:55 437.505
SRMSAT 17 Aug 14:20:03 14:24:01 18° 168° (SSE) 14:27:58 437.500
UKube-1 17 Aug 14:32:22 14:36:28 44° 286° (WNW) 14:40:32 .
Gurwin Techsat 1B 17 Aug 14:45:39 14:49:20 19° 265° (W) 14:53:02 435.225
DX 1 17 Aug 14:46:40 14:49:48 20° 291° (WNW) 14:52:57 434.975-435.025
BEESAT 3 17 Aug 14:50:15 14:54:01 40° 59° (ENE) 14:57:41 437.485
AO-7 17 Aug 14:54:22 15:02:40 71° 70° (ENE) 15:10:59 .
BEESAT 2 17 Aug 14:56:02 14:58:25 15° 52° (NE) 15:00:47 435.950
RS-15 17 Aug 14:56:51 15:03:21 15° 333° (NNW) 15:09:52 29.354- 29.394
BEESAT 17 Aug 15:08:06 15:12:31 37° 99° (E) 15:16:55 436.000
ITAMSAT 1 17 Aug 15:12:47 15:17:59 79° 76° (ENE) 15:23:12 435.822/435.867
MOZHAYETS 4 17 Aug 15:25:54 15:30:23 51° 100° (E) 15:34:52
YUBILEINY 17 Aug 15:27:57 15:36:08 45° 89° (E) 15:44:17 435.215
AO-85 17 Aug 15:34:22 15:38:47 90° 245° (WSW) 15:43:34 145.980
CUBESAT XI-V 17 Aug 15:38:05 15:39:34 11° 92° (E) 15:41:03 437.345
ITUPSAT 1 17 Aug 15:39:30 15:44:17 85° 101° (E) 15:49:04 437.325
JUGNU 17 Aug 16:05:18 16:09:00 17° 193° (SSW) 16:12:41 437.505
SRMSAT 17 Aug 16:07:52 16:12:35 25° 178° (S) 16:17:19 437.500
DOVE 4 17 Aug 16:20:23 16:24:41 26° 70° (ENE) 16:28:58 437.250
Tancredo 1 17 Aug 16:22:43 16:23:46 11° 33° (NNE) 16:24:49 437.200
BEESAT 3 17 Aug 16:29:47 16:31:07 12° 253° (WSW) 16:32:28 437.485
BEESAT 2 17 Aug 16:32:33 16:36:17 37° 247° (WSW) 16:39:58 435.950
BEESAT 17 Aug 16:46:49 16:49:57 18° 292° (WNW) 16:53:04 436.000
LilacSat-2 17 Aug 16:48:42 16:49:51 11° 69° (ENE) 16:51:01 437.200
AO-7 17 Aug 16:50:08 16:55:53 20° 264° (W) 17:01:40 .
STARS 17 Aug 16:56:02 16:58:14 14° 94° (E) 17:00:25 437.465
CUTE-I 17 Aug 16:56:29 17:00:03 18° 67° (ENE) 17:03:36 437.470
XW-2D 17 Aug 16:56:48 16:58:48 14° 70° (ENE) 17:00:48 145.860 - 145.880
MOZHAYETS 4 17 Aug 17:05:07 17:07:03 13° 293° (WNW) 17:08:58
XW-2B 17 Aug 17:07:03 17:09:39 18° 71° (ENE) 17:12:17 145.730 - 145.750
CUBESAT XI-V 17 Aug 17:12:35 17:17:11 54° 285° (WNW) 17:21:44 437.345
NUDT-PHONESAT 17 Aug 17:17:37 17:20:06 18° 71° (ENE) 17:22:35 437.300
RS-15 17 Aug 17:21:40 17:24:11 11° 13° (NNE) 17:26:41 29.354- 29.394
XW-2C 17 Aug 17:25:04 17:28:25 32° 74° (ENE) 17:31:48 145.795 - 145.815
YUBILEINY 17 Aug 17:25:17 17:32:56 33° 284° (WNW) 17:40:38 435.215
XW-2F 17 Aug 17:40:06 17:43:41 49° 76° (ENE) 17:47:19 145.980 - 146.000
KKS-1 17 Aug 17:41:17 17:45:38 58° 285° (WNW) 17:49:57 437.445
Tancredo 1 17 Aug 17:56:23 17:59:12 48° 227° (SW) 18:01:59 437.200
SRMSAT 17 Aug 17:56:44 18:01:11 22° 188° (S) 18:05:40 437.500
DOVE 4 17 Aug 17:57:27 18:02:08 32° 263° (W) 18:06:49 437.250
ISS 17 Aug 18:02:17 18:05:16 32° 40° (NE) 18:08:14 437.550
KAITUO 1B 17 Aug 18:11:36 18:15:15 72° 258° (WSW) 18:18:58 145.475/437.950
CUTE 1.7 + AOD 2 17 Aug 18:11:54 18:15:01 20° 70° (ENE) 18:18:07 437.475
nSIGHT-1 17 Aug 18:15:20 18:18:29 48° 42° (NE) 18:21:36 .
LilacSat-2 17 Aug 18:20:16 18:23:44 35° 262° (W) 18:27:13 437.200
HO-68 17 Aug 18:24:53 18:31:40 48° 69° (ENE) 18:38:27 435.675
XW-2D 17 Aug 18:29:28 18:32:41 27° 263° (W) 18:35:56 145.860 - 145.880
STARS 17 Aug 18:30:37 18:34:40 38° 287° (WNW) 18:38:41 437.465
CUTE-I 17 Aug 18:34:32 18:39:40 46° 260° (W) 18:44:49 437.470
XW-2B 17 Aug 18:40:49 18:43:40 21° 264° (W) 18:46:32 145.730 - 145.750
NUDT-PHONESAT 17 Aug 18:51:02 18:53:47 20° 264° (W) 18:56:34 437.300
XW-2C 17 Aug 19:01:26 19:02:41 11° 267° (W) 19:03:55 145.795 - 145.815
SEEDS 17 Aug 19:05:45 19:09:51 56° 75° (ENE) 19:13:58 437.485
O/OREOS (USA 219) 17 Aug 19:09:52 19:12:35 15° 62° (ENE) 19:15:17 437.305
XW-2A 17 Aug 19:16:02 19:19:19 65° 77° (ENE) 19:22:37 145.665 - 145.685
CUBEBUG 2 17 Aug 19:19:31 19:23:52 70° 78° (ENE) 19:28:07 437.445
UWE-3 17 Aug 19:20:25 19:24:20 37° 74° (ENE) 19:28:12 435.000/436.395/437.385
STRAND 1 17 Aug 19:31:22 19:36:18 49° 100° (E) 19:41:13 437.568
RS-15 17 Aug 19:31:55 19:42:24 33° 46° (NE) 19:52:21 29.354- 29.394
ISS 17 Aug 19:39:29 19:41:31 16° 233° (SW) 19:43:32 437.550
Oscar 11 17 Aug 19:45:40 19:49:09 25° 71° (ENE) 19:52:38 .
CUTE 1.7 + AOD 2 17 Aug 19:47:10 19:50:38 25° 264° (W) 19:54:08 437.475
SRMSAT 17 Aug 19:47:12 19:49:44 13° 197° (SSW) 19:52:16 437.500
AAUSAT CUBESAT 2 17 Aug 20:02:17 20:06:22 65° 259° (W) 20:10:31 437.432
ZACube-1 17 Aug 20:08:07 20:12:18 76° 76° (ENE) 20:16:27 437.345
HO-68 17 Aug 20:13:45 20:19:30 26° 263° (W) 20:25:17 435.675
AO-73 17 Aug 20:31:37 20:35:45 60° 260° (W) 20:39:50 145.935
Max Valier Satellite 17 Aug 20:40:22 20:42:27 15° 70° (ENE) 20:44:33 145.860
O/OREOS (USA 219) 17 Aug 20:47:52 20:52:07 39° 256° (WSW) 20:56:21 437.305
FO-29 17 Aug 20:48:16 20:51:55 18° 93° (E) 20:55:24 435.910
UWE-3 17 Aug 20:58:50 21:00:51 13° 266° (W) 21:02:53 435.000/436.395/437.385
STRAND 1 17 Aug 21:12:04 21:15:01 16° 294° (WNW) 21:17:58 437.568
TIGRISAT 17 Aug 21:20:13 21:22:17 13° 94° (E) 21:24:20 435.000
Oscar 11 17 Aug 21:21:55 21:25:10 21° 264° (W) 21:28:27 .
EO-88 17 Aug 21:40:35 21:44:11 83° 81° (E) 21:47:50 145.990 - 145.960
DELFI C3 17 Aug 21:40:44 21:44:37 54° 260° (W) 21:48:33 145.870
RS-15 17 Aug 21:43:58 21:55:41 68° 248° (WSW) 22:06:46 29.354- 29.394
PCSat 17 Aug 21:45:42 21:49:02 17° 104° (ESE) 21:52:22 145.827
LO-87 17 Aug 21:52:16 21:52:35 10° 69° (ENE) 21:52:54 145.935 - 145.965
PRISM 17 Aug 21:54:07 21:57:30 24° 97° (E) 22:00:51 437.425
Max Valier Satellite 17 Aug 22:13:01 22:16:02 24° 263° (W) 22:19:03 145.860
UNISAT 6 17 Aug 22:18:38 22:22:56 81° 100° (E) 22:27:19 437.425
FO-29 17 Aug 22:32:05 22:37:15 40° 289° (WNW) 22:42:05 435.910
SO-50 17 Aug 22:35:05 22:38:39 23° 111° (ESE) 22:42:13 436.795
TIGRISAT 17 Aug 22:55:02 22:59:02 39° 286° (WNW) 23:03:06 435.000
M-CUBED/EXP-1 PRIME 17 Aug 23:11:32 23:14:58 23° 99° (E) 23:18:12 437.505
LO-87 17 Aug 23:22:17 23:25:37 35° 261° (W) 23:28:57 145.935 - 145.965
ESTCUBE 1 17 Aug 23:24:57 23:29:25 71° 258° (WSW) 23:33:56 437.505/2401.250
PCSat 17 Aug 23:26:42 23:31:56 50° 298° (WNW) 23:37:13 145.827
PRISM 17 Aug 23:29:35 23:32:34 20° 290° (WNW) 23:35:33 437.425
NANOSAT C BR1 17 Aug 23:36:16 23:39:30 21° 96° (E) 23:42:43 145.865
POLYITAN 1 17 Aug 23:37:22 23:40:52 25° 97° (E) 23:44:20 437.675
VELOX 1 17 Aug 23:47:20 23:51:23 36° 72° (ENE) 23:55:27 145.980
QB50P2 17 Aug 23:51:50 23:55:51 43° 99° (E) 23:59:51 145.880/145.840
EO-79 17 Aug 23:53:51 23:57:50 40° 99° (E) 00:01:47 145.935-145.965
DX 1 18 Aug 00:02:15 00:04:28 14° 67° (ENE) 00:06:40 434.975-435.025
AIST 2D 18 Aug 00:02:46 00:06:07 41° 284° (WNW) 00:09:28 435.315
SO-50 18 Aug 00:15:02 00:18:56 28° 305° (NW) 00:22:49 436.795
